Location: Moscow
(55.7500°N, 37.5830°E)
Time: 18:53:49
(UTC+03:00)

Tiros 1 - Pass Details

Date: 08 December 2021
Orbit: 629 x 664 km, 48.4° (Epoch: 19 January)

Event Time Altitude Azimuth Distance (km) Brightness Sun altitude
Rises 16:50:30 0° 192° (SSW) 2,908 11.2 -6.8°
Reaches altitude 10° 16:54:49 10° 154° (SSE) 2,012 9.7 -7.3°
Maximum altitude 16:55:46 11° 142° (SE) 1,976 9.6 -7.5°
Drops below altitude 10° 16:56:43 10° 130° (SE) 2,017 9.5 -7.6°
Enters shadow 16:59:52 - 99° (E) 2,598 9.8 -8.0°
